sat.trackr.live / text

‹ back to catalog

STARLINK-32495

NORAD 62052 · 2024-216W

PAYLOAD ACTIVE UNKNOWN

§ Identity

Operator
Country
US
Launch date
2024-11-21
Launch site
AFETR
Launch vehicle
Mass (kg)
RCS (m²)

Purposes: comms

External: N2YO · Heavens-Above · Gunter

§ Orbital elements

Epoch: 2026-09-21T08:42:36.351936Z

Period
94.27 min
Inclination
42.9978°
Eccentricity
0.0001029
Mean motion
15.27590858 rev/d
Perigee alt
482.3 km
Apogee alt
483.7 km
Semi-major
6,861.2 km
B*
4.5559e-4
RAAN
237.9805°
Arg perigee
268.3815°
Mean anomaly
91.6919°
Rev number
10,372

§ Raw data

STARLINK-324951 62052U 24216W   26264.36292074  .00012300  00000+0  45559-3 0  99992 62052  42.9978 237.9805 0001029 268.3815  91.6919 15.27590858103723

JSON: /api/v1/satellites/62052 · /tle

For live sub-satellite position, see the globe view (requires WebGL).

§ Visibility from observer

Set your observer location to see the next 7 days of passes ≥ 10°. The values pass through the URL so the page stays shareable.

No JS? Fill the form by hand. The geolocation button needs JavaScript.